Morgantown, WV

11:40 PM EDT on May 28, 2017 (GMT -0400)
Morgantown Municipal-Hart

Weather History for KMGW - April, 2013

Change the Weather History Date:

Saturday, April 27, 2013

  Actual Average Record
Temperature  
Mean Temperature 57 °F 56 °F  
Max Temperature 76 °F 68 °F 89 °F (2009)
Min Temperature 37 °F 45 °F 28 °F (1971)
Degree Days  
Heating Degree Days 8 9  
Month to date heating degree days 281 354  
Since 1 July heating degree days 4753 4955  
Cooling Degree Days 0 1  
Month to date cooling degree days 36 9  
Year to date cooling degree days 36 11  
Growing Degree Days 6 (Base 50)    
Moisture  
Dew Point 34 °F    
Average Humidity 52    
Maximum Humidity 85    
Minimum Humidity 18    
Precipitation  
Precipitation 0.00 in 0.12 in 1.00 in (1973)
Month to date precipitation 1.59 3.17  
Year to date precipitation 8.54 12.23  
Sea Level Pressure  
Sea Level Pressure 30.29 in    
Wind  
Wind Speed 5 mph (East)    
Max Wind Speed 16 mph    
Max Gust Speed 22 mph    
Visibility 10 miles    
Events      
T = Trace of Precipitation, MM = Missing Value Source: NWS Daily Summary

Daily Weather History Graph

Daily Weather History Graph

Search for Another Location

Airport or City:

Trip Planner

Search our weather history database for the weather conditions in past years. The results will help you decide how hot, cold, wet, or windy it might be!

Date:

Astronomy

Apr. 27, 2013 Rise Set
Actual Time 6:25 AM EDT 8:09 PM EDT
Civil Twilight 5:56 AM EDT 8:38 PM EDT
Nautical Twilight 5:21 AM EDT 9:13 PM EDT
Astronomical Twilight 4:44 AM EDT 9:51 PM EDT
Moon 10:37 PM EDT (4/27) 7:42 AM EDT (4/27)
Length of Visible Light 14h 42m
Length of Day
13h 44m
Waning Gibbous, 95% of the Moon is Illuminated
Apr 27
Waning Gibbous
May 2
Last Quarter
May 9
New
May 18
First Quarter
May 25
Full

Hourly Weather History & Observations

Time (EDT) Temp. Windchill Dew Point Humidity Pressure Visibility Wind Dir Wind Speed Gust Speed Precip Events Conditions
12:53 AM 45.0 °F 43.5 °F 33.1 °F 63% 30.40 in 10.0 mi North 3.5 mph - N/A   Clear
1:53 AM 44.1 °F - 34.0 °F 68% 30.40 in 10.0 mi Calm Calm - N/A   Clear
2:53 AM 42.1 °F 39.2 °F 33.1 °F 70% 30.38 in 10.0 mi North 4.6 mph - N/A   Clear
3:53 AM 41.0 °F 38.0 °F 34.0 °F 76% 30.38 in 10.0 mi North 4.6 mph - N/A   Clear
4:53 AM 39.0 °F - 32.0 °F 76% 30.37 in 10.0 mi Calm Calm - N/A   Clear
5:53 AM 39.0 °F - 32.0 °F 76% 30.37 in 10.0 mi Calm Calm - N/A   Clear
6:53 AM 37.9 °F - 33.1 °F 83% 30.38 in 10.0 mi Calm Calm - N/A   Clear
7:53 AM 45.0 °F - 34.0 °F 65% 30.38 in 10.0 mi Calm Calm - N/A   Clear
8:53 AM 52.0 °F - 37.0 °F 57% 30.37 in 10.0 mi Calm Calm - N/A   Clear
9:53 AM 59.0 °F - 35.1 °F 41% 30.35 in 10.0 mi Calm Calm - N/A   Clear
10:53 AM 64.9 °F - 37.0 °F 36% 30.34 in 10.0 mi NNE 5.8 mph - N/A   Clear
11:53 AM 68.0 °F - 37.0 °F 32% 30.32 in 10.0 mi NE 6.9 mph - N/A   Clear
12:53 PM 70.0 °F - 30.0 °F 23% 30.28 in 10.0 mi Variable 5.8 mph - N/A   Clear
1:53 PM 72.0 °F - 32.0 °F 23% 30.27 in 10.0 mi East 5.8 mph - N/A   Clear
2:53 PM 73.0 °F - 28.9 °F 20% 30.24 in 10.0 mi South 4.6 mph - N/A   Clear
3:53 PM 75.0 °F - 30.9 °F 20% 30.22 in 10.0 mi Variable 3.5 mph - N/A   Clear
4:53 PM 75.0 °F - 28.9 °F 18% 30.20 in 10.0 mi Calm Calm - N/A   Clear
5:53 PM 73.9 °F - 30.0 °F 20% 30.18 in 10.0 mi Variable 5.8 mph - N/A   Scattered Clouds
6:53 PM 72.0 °F - 33.1 °F 24% 30.18 in 10.0 mi ESE 8.1 mph - N/A   Mostly Cloudy
7:53 PM 70.0 °F - 30.9 °F 24% 30.17 in 10.0 mi SE 10.4 mph - N/A   Partly Cloudy
8:53 PM 68.0 °F - 33.1 °F 27% 30.18 in 10.0 mi ESE 10.4 mph - N/A   Clear
9:53 PM 66.0 °F - 37.0 °F 34% 30.17 in 10.0 mi SE 11.5 mph - N/A   Clear
10:53 PM 64.0 °F - 37.9 °F 38% 30.18 in 9.0 mi SE 11.5 mph - N/A   Clear
11:53 PM 62.1 °F - 39.9 °F 44% 30.19 in 9.0 mi SE 8.1 mph - N/A   Partly Cloudy